Showing default

LUOJIA-1 01, 43485

Orbit data source: Space-Track

LUOJIA-1 01, 43485 is a payload satellite owned by Wuhan daxue (CN) in SSO that was launched on Sat, 02 Jun 2018 UTC via a CHANG ZHENG 2D launch vehicle from the Jiuquan Satellite Launch Center, China (JSC). Payload-class satellites include a variety of spacecraft equipped with specific instruments for various scientific and technological missions. These include communications satellites like Starlink; space stations such as the ISS; scientific satellites like the Hubble; Earth observation satellites from companies like Planet Labs, Umbra, and HawkEye 360; GPS; miniature CubeSats for education and research; and military/defense satellites.

Loading next visibility...
Identifier
43485, 2018-048B
Orbit
SSO
Country
Flag of CNCN / PRC
Related business
Manufacturer
Wuhan daxue
Mission
Operational Amateur Imaging
Bus & Motor
CUBESAT 6U, Unknown motor
Mass
10 kg wet, 10 kg dry
Launch date (UTC)
2018-06-02 (7 years ago)
Launch vehicle
CHANG ZHENG 2D
Launch site
Jiuquan Satellite Launch Center, China (JSC)
Object type
Payload
Rocket body
Debris
Shape & HBR
Box + 1 Pan, 0.3 m
Radar Cross Section
0.092 m², Medium (>0.1 m² and < 1m²)

Expand to show TLE details & history
Last TLE update: 5 hours ago

TLE from 5 hours ago
0 LUOJIA-1 01
1 43485U 18048B   25310.87676919  .00003994  00000-0  46217-3 0  9997
2 43485  97.8325  27.5805 0010338 128.0146 232.2004 14.86044626401182
Epoch: 2025-11-06T21:02Z
TLE epoch observation values (Epoch: 2025-11-06T21:02:32.858Z)
Latitude
-0.00003°
Longitude
25.6148°
Altitude
617.774 km
Speed
7.548 km/s
True Right ascension
01h 50m 19s
True Declination
0° 00' 00"
Sunlit
Object was in full shadow at epoch
Visualization orbit readout
Latitude
Unknown
Longitude
Unknown
Altitude
Unknown
Speed
Unknown
Apparent Right ascension
Unknown
Apparent Declination
Unknown
Sunlit
N/A
Visualization observer readout
Local Sidereal Time
21:57:49
Azimuth
Unknown
Elevation
Unknown
Doppler factor
Unknown
Orbital elements
Apogee altitude
614.56 km
Perigee altitude
600.117 km
Semi-major axis
6,985.476 km
Eccentricity
0.00103
Inclination
97.8325°
RAAN
27.5805°
Arg. of periapsis
128.0146°
True anomaly
232.10687°
Mean anomaly
232.2004°
Eccentric anomaly
232.15363°
Mean motion
3.71748 °/min
Orbital period
96.84 mins
BSTAR
0.00046217
Loading maneuver chart data...
Computing Atmospheric mass density...
Loading historical data...
Loading historical data...
Loading historical data...
Loading historical data...
Loading historical data...
Loading historical data...
Loading historical data...
Other satellites on launch #48 in the year 2018 (2018-06-02 UTC)

Documentation

Showing up to 5 results
|